Content
SEND FEEDBACK

Daily
Averages
Monthly
Summary
United States of America

AGNEW, NEBRASKA


Home > North America > United States > Nebraska
Elevation: 1260 feet     Latitude: 41 01N     Longitude: 096 48W

WEATHER
 
SELECT A DAY
Number of Records: 202,693;   Date Range: 1/1/95 - 7/7/14
 
SHARE

PRINT THIS DATA

[ ← Previous Day ]
WEATHER ALMANAC - FEBRUARY 4, 2013
[ Next Day → ]
[ °C ]   °F
Weather ElementAverageHighLow
Temperature27.3 °F34 °F (1:54 am)24.1 °F (7:54 am)
Dewpoint22.4 °F27 °F (1:54 am)19.9 °F (7:54 am)
Humidity81.8 %92 % (10:54 pm)75 % (1:54 am)
Barometer29.98 in30.08 in (10:54 am)29.82 in (1:54 am)
Wind Speed9.8 mph20.7 mph (4:54 am)
Wind Gust23 mph (6:38 am)
Weather ElementAverage
Visibility9.1 mi
Wind DirectionESE (124.2 °)

Weather ElementTotal
Precipitation---
Heating Degree Days36 (Base 65)
Averaged from 24 records on February 4, 2013
WEATHER CONDITIONS BREAKOUT
WIND DIRECTION BREAKOUT
WEATHER BY HOUR - FEBRUARY 4, 2013
[ °C ]   °F
Local TimeTemperatureDewpointHumidityBarometerVisibilityWind DirectionWind SpeedGust SpeedPrecipitationEventsConditions
1:54 AM34.0 °F27.0 °F75 %29.82 in10.0 miCalmClear
2:54 AM34.0 °F27.0 °F75 %29.83 in10.0 miNW (310°)4.6 mphClear
4:54 AM34.0 °F27.0 °F75 %29.89 in10.0 miNorth (360°)20.7 mphClear
5:54 AM28.9 °F24.1 °F82 %29.94 in10.0 miNorth (10°)19.6 mphClear
6:38 AM28.4 °F24.8 °F86 %29.94 in10.0 miNorth (360°)18.4 mph23.0 mphMostly Cloudy
6:54 AM27.0 °F23.0 °F85 %29.99 in10.0 miNorth (10°)17.3 mphOvercast
7:54 AM24.1 °F19.9 °F84 %30.02 in10.0 miNorth (360°)18.4 mphOvercast
8:54 AM25.0 °F21.0 °F85 %30.04 in9.0 miNorth (10°)12.7 mphOvercast
9:54 AM25.0 °F21.0 °F85 %30.06 in10.0 miNorth (10°)13.8 mphOvercast
10:54 AM26.1 °F19.9 °F78 %30.08 in10.0 miNorth (10°)15.0 mphOvercast
11:54 AM26.1 °F19.9 °F78 %30.07 in9.0 miNNE (20°)10.4 mphOvercast
12:54 PM26.1 °F19.9 °F78 %30.06 in9.0 miNNE (30°)8.1 mphOvercast
1:54 PM26.1 °F19.9 °F78 %30.06 in9.0 miCalmOvercast
2:54 PM26.1 °F19.9 °F78 %30.04 in8.0 miNorth (10°)3.5 mphOvercast
3:54 PM27.0 °F21.0 °F78 %30.02 in8.0 miNE (40°)3.5 mphOvercast
4:54 PM27.0 °F19.9 °F75 %29.99 in8.0 miEast (90°)3.5 mphOvercast
5:54 PM26.6 °F21.2 °F80 %29.95 in8.0 miCalmOvercast
6:54 PM26.1 °F21.0 °F81 %30.01 in9.0 miSW (220°)6.9 mphOvercast
7:54 PM26.1 °F21.9 °F84 %30.01 in9.0 miSouth (180°)5.8 mphOvercast
8:54 PM27.0 °F23.0 °F85 %29.96 in10.0 miSouth (190°)11.5 mphOvercast
9:46 PM26.6 °F23.0 °F86 %29.91 in9.0 miSouth (190°)13.8 mphOvercast
9:54 PM26.1 °F23.0 °F88 %29.95 in9.0 miSouth (190°)12.7 mphOvercast
10:54 PM26.1 °F24.1 °F92 %29.94 in8.0 miSouth (180°)8.1 mphOvercast
11:54 PM26.1 °F24.1 °F92 %29.93 in7.0 miSSW (200°)6.9 mphOvercast
Hourly data recorded from KLNK, located miles away from Agnew, Nebraska







STORIES FROM OUR PARTNERS